Powrót do katalogu

STARLINK-1017

AktywnyŁącznośćVLEO
NORAD 44723·PAYLOAD·🇺🇸 United States

Wystrzelony Nov 11, 2019 z Cape Canaveral Space Force Station

Loading…

Następne Przeloty (najbliższe 24 godziny)

TLE

ŚwieżeSource: CelesTrak SupGP

Epoka: Sep 15, 2026, 00:29 UTC

1 44723C 19074L   26258.02062500  .00009338  00000+0  23752-3 0  2581
2 44723  53.0452   7.6753 0003325 337.2100 351.7562 15.39019215    14

Śledź STARLINK-1017 w czasie rzeczywistym z AllMySat

Download on the App Store